Regional Weather Roundup
Issued by NWS Goodland, KS

Home | Current Version | Previous Version | Graphics & Text | Print | Product List | Glossary On
Versions: 1 2 3 4 5 6 7 8 9 10 11 12 13 14 15 16 17 18 19 20 21 22 23 24 25 26 27 28 29 30 31 32 33 34 35 36 37 38 39 40 41 42 43 44 45 46 47 48 49 50
000
ASUS43 KGLD 242159
RWRGLD

GOODLAND FORECAST AREA HOURLY WEATHER ROUNDUP
NATIONAL WEATHER SERVICE GOODLAND KS
400 PM MDT THU APR 24 2014

...OFFICIAL OBSERVATIONS...

CITY           SKY/WX    TMP DP  RH WIND       PRES   REMARKS
GOODLAND KS    SUNNY     66  12  12 W12G21    29.90F
HILL CITY KS   SUNNY     70  22  16 NW12      29.85F
IMPERIAL NEB   PTSUNNY   69  10  10 W14G20    29.84F
MCCOOK NEB     SUNNY     68  12  11 NW18G26   29.83F
AKRON CO       MOSUNNY   60  17  18 W7        29.90F
BURLINGTON CO  SUNNY     63  14  15 NW12G21   29.92F
LIMON CO       MOSUNNY   61  19  19 VRB6      29.92F
$$

...UNOFFICIAL OBSERVATIONS...

CITY           SKY/WX    TMP DP  RH WIND       PRES   REMARKS
COLBY KS       SUNNY     70  23  17 NW7G20    29.88F
LENORA KS        N/A     67  32  27 NW14        N/A
LEOTI KS         N/A     68  32  26 NW6         N/A
NORTON KS      SUNNY     66  28  24 NW12      29.82F
SHARON SPRINGS   N/A     68  15  13 N7G16       N/A
WAKEENEY KS      N/A     69  30  23 MISG        N/A
TRENTON NEB      N/A     66  32  28 NW12        N/A
KIT CARSON CO    N/A     66  17  15 MISG        N/A
$$



USA.gov is the U.S. government's official web portal to all federal, state and local government web resources and services.